[[{"header":{"parameterUnit":"m.s-1","parameterCategory":2,"la1":30.2991,"la2":30.254,"lo1":-89.0895,"lo2":-89.0444,"dy":0.0017,"dx":0.0017,"nx":28,"ny":28,"refTime":"2024-07-26T21:00:00:Z","depth":"0","parameterNumber":2,"parameterNumberName":"U-component_of_CURRENTS"},"data":[0,0,0,0,0,0,0,0,0,0,0,0,0,0,0,0,0,0,0,0,0,0,0,0,0,0,0,0,0,0,0,0,0,0,0,0,0,0,0,0,0,0,0,0,0,0,0,0,0,0,0,0,0,0,0,0,0,0,0.1121,0.112,0,0.1103,0.1103,0.1103,0.1129,0.1129,0.113,0.113,0.111,0.1109,0.1108,0,0,0,0,0,0,0,0,0,0,0,0,0,0.113,0.1131,0.1121,0.112,0.1119,0.1103,0.1103,0.1103,0.1129,0.1129,0.113,0.1131,0.111,0.1109,0.1108,0,0,0,0,0,0,0,0,0,0,0,0,0,0.1125,0.1131,0.1121,0.1127,0.1127,0.1103,0.1103,0.1103,0.1129,0.113,0.113,0.1131,0.1111,0.1109,0.1108,0.1083,0,0,0.1103,0.1102,0,0,0,0,0,0,0,0,0.1125,0.1125,0.1127,0.1127,0.1127,0.1115,0.1099,0.1095,0.1129,0.1133,0.113,0.1131,0.1108,0.1107,0.1108,0.1082,0.1081,0.1103,0.1102,0.1101,0.1101,0,0,0,0,0,0,0,0.1126,0.1126,0.1118,0.1126,0.1126,0.1115,0.1116,0.1098,0.1119,0.1132,0.1133,0.1124,0.1109,0.1109,0.1108,0.1081,0.1103,0.1102,0.1101,0.11,0.113,0.1131,0,0,0,0,0,0,0.1121,0.1126,0.1118,0.1117,0.1123,0.1114,0.1115,0.1122,0.112,0.1119,0.1123,0.1125,0.1112,0.1109,0.1107,0.1164,0.1101,0.11,0.1099,0.1128,0.113,0.1132,0,0,0,0,0,0,0.1122,0.1121,0.1119,0.1117,0.1115,0.1113,0.112,0.1121,0.1132,0.1112,0.1113,0.1135,0.1112,0.1109,0.1134,0.116,0.1099,0.1098,0.1126,0.1128,0.1131,0.1221,0,0,0,0,0,0,0.1122,0.1122,0.1123,0.1117,0.1115,0.114,0.1119,0.112,0.1123,0.1126,0.1122,0.112,0.1113,0.1136,0.1132,0.1156,0.1097,0.1124,0.1127,0.113,0.1216,0.1226,0.1235,0,0,0,0,0,0.1123,0.1149,0.1124,0.1122,0.1119,0.1141,0.1142,0.1143,0.1123,0.1152,0.1151,0.1121,0.1153,0.1137,0.1131,0.1156,0.1122,0.1126,0.113,0.1212,0.1224,0.1235,0,0,0,0,0,0,0.1161,0.1153,0.1126,0.1147,0.1148,0.1145,0.1172,0.1146,0.1164,0.1174,0.1142,0.1142,0.1166,0.1152,0.1134,0.1175,0.1132,0.1135,0.1196,0.1208,0.1217,0.1245,0.1095,0,0,0,0,0,0.1162,0.1183,0.1162,0.1182,0.119,0.1171,0.1174,0.1175,0.1183,0.1191,0.1174,0.1171,0.1173,0.1186,0.118,0.1205,0.1215,0.1218,0.1228,0.1236,0.1256,0.1285,0.1299,0.1144,0.1144,0.1144,0,0,0.1175,0.1178,0.1184,0.1191,0.1198,0.1216,0.1181,0.1213,0.1225,0.1184,0.1209,0.1194,0.1184,0.1219,0.1229,0.1216,0.1293,0.1241,0.1248,0.1264,0.1291,0.1306,0.1319,0.1147,0.1146,0.1146,0,0,0.122,0.1227,0.1249,0.1264,0.1274,0.127,0.1278,0.1274,0.1282,0.1304,0.127,0.1288,0.1284,0.1292,0.1293,0.1351,0.1331,0.1336,0.1422,0.1449,0.1462,0.1474,0.1541,0.1558,0.1356,0.1356,0.1356,0,0.1223,0.1251,0.1261,0.1292,0.1303,0.1295,0.1317,0.1332,0.133,0.1337,0.1338,0.134,0.1329,0.1362,0.1396,0.1374,0.1396,0.1377,0.1463,0.1474,0.1485,0.155,0.1568,0.1361,0.136,0.136,0.1359,0,0.1268,0.1299,0.1334,0.1357,0.1377,0.1417,0.1423,0.1442,0.1442,0.144,0.1473,0.1475,0.1479,0.1477,0.1464,0.1518,0.1514,0.1459,0.1434,0.1506,0.1571,0.1587,0.1368,0.1366,0.1365,0.1363,0,0,0.1256,0.1335,0.1344,0.1368,0.1416,0.1437,0.1484,0.1508,0.1527,0.1558,0.1586,0.1618,0.1608,0.161,0.1582,0.1624,0.1728,0.1589,0.1588,0.166,0.1826,0.1904,0.1929,0.1681,0.1683,0.1685,0.1855,0,0.1277,0.1337,0.1367,0.1431,0.1472,0.1496,0.1531,0.1561,0.159,0.1624,0.1656,0.1674,0.1661,0.1664,0.1711,0.1697,0.177,0.1689,0.1743,0.1746,0.1809,0.195,0.1994,0.2156,0.1871,0.1874,0.1876,0,0.1305,0.1345,0.1395,0.1472,0.1486,0.1511,0.1564,0.1593,0.1654,0.168,0.1733,0.1741,0.1812,0.1779,0.1875,0.1821,0.1852,0.1862,0.1867,0.192,0.1855,0.2031,0.2196,0.21,0.19,0.1899,0.1897,0,0.1298,0.1374,0.1409,0.1437,0.1507,0.1525,0.1551,0.1605,0.1643,0.1708,0.1756,0.1822,0.1864,0.1915,0.1973,0.1919,0.2087,0.1998,0.2116,0.2122,0.2164,0.217,0.2246,0.2095,0.2095,0.2094,0.2094,0,0.1324,0.1363,0.1407,0.1433,0.1467,0.1519,0.1562,0.1592,0.1667,0.172,0.1776,0.1844,0.1899,0.1996,0.2027,0.2165,0.214,0.2188,0.2187,0.2202,0.2209,0.2125,0.2015,0.2101,0.2099,0.2098,0.2097,0,0.1329,0.1361,0.1408,0.1459,0.1472,0.1492,0.1562,0.1604,0.1669,0.1746,0.1775,0.189,0.2022,0.2114,0.2209,0.2251,0.2303,0.2391,0.2438,0.2441,0.2442,0.2335,0.2342,0.2299,0.2556,0.2559,0.2562,0,0.1339,0.1366,0.1402,0.1423,0.1444,0.1486,0.152,0.1587,0.164,0.1772,0.1814,0.1976,0.2099,0.233,0.2443,0.2593,0.2435,0.2693,0.2599,0.2514,0.2391,0.2227,0.2175,0.2702,0.2705,0.2708,0.271,0,0.1349,0.1349,0.1369,0.1411,0.144,0.148,0.1535,0.1578,0.1664,0.1752,0.1885,0.2,0.2266,0.2451,0.2669,0.2754,0.2585,0.2759,0.2646,0.2526,0.2376,0.2309,0.2528,0.2737,0.2734,0.2732,0.2731,0.273,0.1325,0.1331,0.135,0.1394,0.1428,0.1464,0.1488,0.1573,0.1655,0.178,0.1901,0.2083,0.2369,0.2699,0.2776,0.2924,0.277,0.2879,0.2768,0.2619,0.2542,0.2857,0.3063,0.3062,0.3061,0.3061,0.306,0,0.127,0.1297,0.1343,0.1368,0.1397,0.1429,0.1491,0.1522,0.1604,0.1765,0.1908,0.2224,0.2482,0.2698,0.2938,0.2909,0.2808,0.2847,0.2599,0.2556,0.2851,0.2823,0.3016,0.3016,0.3016,0.3016,0.3016,0.3016,0.1236,0.1253,0.129,0.1322,0.1353,0.1362,0.1385,0.1453,0.1557,0.1742,0.192,0.2089,0.237,0.2634,0.2749,0.2757,0.2522,0.2508,0.2377,0.2549,0.254,0.2532,0.2483,0.2602,0.2601,0.2091,0.2086,0.2083]},{"header":{"parameterUnit":"m.s-1","parameterCategory":2,"la1":30.2991,"la2":30.254,"lo1":-89.0895,"lo2":-89.0444,"dy":0.0017,"dx":0.0017,"nx":28,"ny":28,"refTime":"2024-07-26T21:00:00:Z","depth":"0","parameterNumber":3,"parameterNumberName":"V-component_of_CURRENTS"},"data":[0,0,0,0,0,0,0,0,0,0,0,0,0,0,0,0,0,0,0,0,0,0,0,0,0,0,0,0,0,0,0,0,0,0,0,0,0,0,0,0,0,0,0,0,0,0,0,0,0,0,0,0,0,0,0,0,0,0,-0.0081,-0.0081,0,-0.0068,-0.0068,-0.0068,-0.0052,-0.0051,-0.005,-0.0049,-0.0044,-0.0045,-0.0046,0,0,0,0,0,0,0,0,0,0,0,0,0,-0.0044,-0.0045,-0.0081,-0.0081,-0.008,-0.0067,-0.0068,-0.0068,-0.0052,-0.0051,-0.005,-0.0049,-0.0044,-0.0045,-0.0046,0,0,0,0,0,0,0,0,0,0,0,0,0,-0.0054,-0.0046,-0.0081,-0.0066,-0.0064,-0.0067,-0.0068,-0.0068,-0.0052,-0.0051,-0.005,-0.0049,-0.0044,-0.0045,-0.0046,-0.0076,0,0,-0.0049,-0.0049,0,0,0,0,0,0,0,0,-0.0054,-0.0056,-0.0069,-0.0067,-0.0064,-0.0055,-0.0052,-0.0069,-0.0053,-0.0063,-0.0049,-0.0048,-0.0045,-0.0046,-0.0055,-0.0076,-0.0076,-0.0049,-0.0049,-0.005,-0.005,0,0,0,0,0,0,0,-0.0053,-0.0056,-0.0082,-0.0068,-0.0065,-0.0041,-0.0043,-0.0056,-0.0067,-0.0062,-0.0059,-0.0048,-0.0045,-0.0054,-0.0055,-0.0076,-0.0049,-0.005,-0.005,-0.0051,-0.0138,-0.0139,0,0,0,0,0,0,-0.0047,-0.0057,-0.0083,-0.0081,-0.0049,-0.0043,-0.0045,-0.0064,-0.0066,-0.0063,-0.0049,-0.0047,-0.0053,-0.0054,-0.0055,-0.0105,-0.005,-0.0051,-0.0051,-0.0136,-0.0138,-0.014,0,0,0,0,0,0,-0.0047,-0.0051,-0.0083,-0.0061,-0.0063,-0.0045,-0.0067,-0.0064,-0.0061,-0.0055,-0.0053,-0.0046,-0.0052,-0.0053,-0.0085,-0.0104,-0.0051,-0.0052,-0.0134,-0.0137,-0.0139,-0.0198,0,0,0,0,0,0,-0.0046,-0.0052,-0.0075,-0.0062,-0.0064,-0.0082,-0.0067,-0.0065,-0.0054,-0.0051,-0.0052,-0.0051,-0.0051,-0.0084,-0.0086,-0.0104,-0.0053,-0.0132,-0.0135,-0.0138,-0.0193,-0.0202,-0.0209,0,0,0,0,0,-0.0045,-0.0067,-0.0077,-0.008,-0.0094,-0.0081,-0.0081,-0.0067,-0.0055,-0.0059,-0.0077,-0.005,-0.0105,-0.0086,-0.0088,-0.0108,-0.013,-0.0134,-0.0138,-0.019,-0.02,-0.0209,0,0,0,0,0,0,-0.0051,-0.0067,-0.0077,-0.0102,-0.0094,-0.0076,-0.0082,-0.0065,-0.0082,-0.0088,-0.0079,-0.0081,-0.0113,-0.0108,-0.0087,-0.0144,-0.0111,-0.0115,-0.0149,-0.0159,-0.0167,-0.0118,-0.0053,0,0,0,0,0,-0.0069,-0.0094,-0.0093,-0.0109,-0.0116,-0.0102,-0.0098,-0.0087,-0.0089,-0.0094,-0.0088,-0.0103,-0.0134,-0.0143,-0.016,-0.0195,-0.0172,-0.0207,-0.0215,-0.0222,-0.0186,-0.02,-0.0205,-0.0153,-0.0153,-0.0153,0,0,-0.0065,-0.0082,-0.0091,-0.0112,-0.0115,-0.0121,-0.0098,-0.0095,-0.0095,-0.0094,-0.0104,-0.0126,-0.015,-0.0193,-0.0206,-0.0189,-0.0232,-0.0227,-0.0232,-0.0191,-0.0204,-0.0209,-0.0213,-0.0155,-0.0155,-0.0155,0,0,-0.0067,-0.0102,-0.0126,-0.0132,-0.0138,-0.0133,-0.0129,-0.0118,-0.0118,-0.0134,-0.0146,-0.0176,-0.0201,-0.0228,-0.0247,-0.0305,-0.0272,-0.0317,-0.0317,-0.0334,-0.0337,-0.034,-0.0339,-0.0341,-0.0322,-0.0322,-0.0322,0,-0.0081,-0.0099,-0.0123,-0.0146,-0.0142,-0.0137,-0.0141,-0.0151,-0.0142,-0.014,-0.014,-0.0185,-0.0213,-0.0265,-0.0297,-0.0318,-0.0315,-0.0282,-0.0342,-0.0344,-0.0345,-0.0344,-0.0345,-0.0326,-0.0325,-0.0325,-0.0325,0,-0.008,-0.011,-0.0121,-0.0157,-0.0162,-0.0161,-0.0172,-0.0174,-0.0168,-0.016,-0.0187,-0.0233,-0.0244,-0.0284,-0.0313,-0.035,-0.0342,-0.035,-0.0312,-0.0353,-0.035,-0.035,-0.033,-0.0329,-0.0328,-0.0327,0,0,-0.0082,-0.0119,-0.0121,-0.0136,-0.0165,-0.0158,-0.0182,-0.018,-0.0165,-0.0188,-0.0166,-0.0257,-0.0252,-0.0273,-0.0316,-0.0345,-0.0386,-0.0355,-0.0355,-0.0341,-0.0411,-0.0394,-0.0393,-0.0411,-0.0411,-0.0411,-0.0411,0,-0.0079,-0.0103,-0.0121,-0.0132,-0.0149,-0.0162,-0.0166,-0.0171,-0.0168,-0.0151,-0.02,-0.0207,-0.026,-0.0272,-0.0312,-0.036,-0.0385,-0.0383,-0.038,-0.0378,-0.0349,-0.0392,-0.0355,-0.035,-0.0411,-0.0411,-0.0411,0,-0.0078,-0.009,-0.0098,-0.0116,-0.0122,-0.0124,-0.0112,-0.0116,-0.0117,-0.0114,-0.0131,-0.0145,-0.02,-0.023,-0.031,-0.0309,-0.0352,-0.0389,-0.039,-0.0339,-0.0362,-0.0315,-0.0347,-0.0457,-0.0411,-0.0411,-0.0411,0,-0.0049,-0.0079,-0.0073,-0.0081,-0.0098,-0.0097,-0.0099,-0.0098,-0.0085,-0.0082,-0.0053,-0.0111,-0.012,-0.0193,-0.0269,-0.0294,-0.033,-0.0375,-0.0395,-0.0394,-0.0337,-0.033,-0.0454,-0.0408,-0.0408,-0.0408,-0.0408,0,-0.0041,-0.0044,-0.0056,-0.0054,-0.0035,-0.0064,-0.0034,-0.0041,-0.0025,0.0007,-0.0027,-0.0004,-0.0109,-0.0141,-0.0232,-0.03,-0.0302,-0.0378,-0.0391,-0.036,-0.0357,-0.0426,-0.0483,-0.0408,-0.0408,-0.0408,-0.0408,0,-0.0022,-0.0033,-0.0033,-0.0032,-0.0029,-0.0017,-0.0003,0.0028,0.0035,0.0079,0.0084,0.0075,0.0037,-0.0048,-0.0147,-0.0234,-0.0353,-0.0332,-0.0277,-0.0285,-0.0428,-0.0487,-0.0537,-0.0569,-0.0368,-0.0368,-0.0367,0,-0.0011,-0.0008,-0.0001,0.001,0.001,0.0027,0.0051,0.0052,0.0087,0.0129,0.0161,0.0157,0.017,0.0054,-0.0084,-0.0205,-0.0308,-0.0268,-0.0318,-0.0418,-0.0495,-0.0523,-0.0549,-0.0277,-0.0276,-0.0275,-0.0274,0,0.0018,0.0021,0.0034,0.0058,0.0076,0.0105,0.0132,0.0168,0.0189,0.0242,0.0299,0.0317,0.0236,0.0157,0.0009,-0.0105,-0.0324,-0.0255,-0.0378,-0.0439,-0.0455,-0.0496,-0.029,-0.0266,-0.0267,-0.0268,-0.0268,-0.0268,0.005,0.0066,0.0086,0.011,0.0136,0.0183,0.0226,0.0275,0.0346,0.0451,0.0428,0.0524,0.0376,0.0189,0.0014,-0.0254,-0.0271,-0.0355,-0.0419,-0.0438,-0.047,-0.0235,-0.0219,-0.022,-0.022,-0.022,-0.0221,0,0.009,0.0107,0.0138,0.017,0.0219,0.0218,0.0291,0.0362,0.047,0.0582,0.0657,0.07,0.0496,0.0257,-0.0094,-0.0355,-0.0455,-0.051,-0.0561,-0.0582,-0.0389,-0.0388,-0.0384,-0.0384,-0.0384,-0.0384,-0.0384,-0.0383,0.011,0.0145,0.0163,0.0244,0.0275,0.0358,0.0409,0.0523,0.0631,0.0834,0.0965,0.1026,0.0877,0.0142,-0.0381,-0.0537,-0.071,-0.0744,-0.0845,-0.075,-0.0741,-0.0733,-0.0748,-0.082,-0.082,-0.0987,-0.0989,-0.0991]}],[{"header":{"parameterUnit":"m.s-1","parameterCategory":2,"la1":30.2991,"la2":30.254,"lo1":-89.0895,"lo2":-89.0444,"dy":0.0017,"dx":0.0017,"nx":28,"ny":28,"refTime":"2024-07-26T21:00:00:Z","depth":"2","parameterNumber":2,"parameterNumberName":"U-component_of_CURRENTS"},"data":[0,0,0,0,0,0,0,0,0,0,0,0,0,0,0,0,0,0,0,0,0,0,0,0,0,0,0,0,0,0,0,0,0,0,0,0,0,0,0,0,0,0,0,0,0,0,0,0,0,0,0,0,0,0,0,0,0,0,-0.0207,-0.0208,0,-0.0373,-0.0376,-0.0378,-0.0417,-0.0415,-0.0413,-0.0411,-0.0181,-0.0177,-0.0173,0,0,0,0,0,0,0,0,0,0,0,0,0,-0.0183,-0.0183,-0.0207,-0.0208,-0.0209,-0.0372,-0.0376,-0.0379,-0.0417,-0.0415,-0.0412,-0.041,-0.0182,-0.0177,-0.0172,0,0,0,0,0,0,0,0,0,0,0,0,0,-0.0265,-0.0183,-0.0207,-0.024,-0.0244,-0.0372,-0.0376,-0.038,-0.0418,-0.0415,-0.0411,-0.0408,-0.0184,-0.0178,-0.0172,-0.0198,0,0,-0.0153,-0.015,0,0,0,0,0,0,0,0,-0.026,-0.0267,-0.0234,-0.0238,-0.0242,-0.0361,-0.0283,-0.0296,-0.0419,-0.0363,-0.0411,-0.0407,-0.0199,-0.0192,-0.0252,-0.0187,-0.0177,-0.0152,-0.0148,-0.0146,-0.0144,0,0,0,0,0,0,0,-0.0254,-0.0262,-0.0284,-0.0235,-0.024,-0.0335,-0.0342,-0.0289,-0.0298,-0.0368,-0.0368,-0.0371,-0.02,-0.0258,-0.0245,-0.0174,-0.0152,-0.0147,-0.0143,-0.0141,-0.004,-0.0041,0,0,0,0,0,0,-0.0202,-0.0255,-0.0278,-0.0288,-0.0231,-0.0336,-0.0344,-0.0335,-0.0308,-0.0301,-0.0373,-0.0372,-0.027,-0.0252,-0.0236,-0.0166,-0.0146,-0.014,-0.0136,-0.0039,-0.0041,-0.0042,0,0,0,0,0,0,-0.0201,-0.0202,-0.0271,-0.0268,-0.0281,-0.0336,-0.0328,-0.034,-0.034,-0.0314,-0.0301,-0.0352,-0.0267,-0.0245,-0.0174,-0.0159,-0.0137,-0.0132,-0.0038,-0.004,-0.0041,-0.0085,0,0,0,0,0,0,-0.0199,-0.0201,-0.0203,-0.0263,-0.0279,-0.0331,-0.0331,-0.0345,-0.0345,-0.0343,-0.0292,-0.0273,-0.0263,-0.0184,-0.0168,-0.015,-0.0127,-0.0037,-0.0039,-0.0041,-0.0082,-0.0088,-0.0093,0,0,0,0,0,-0.0198,-0.0256,-0.0202,-0.0205,-0.027,-0.0331,-0.0351,-0.0388,-0.0345,-0.037,-0.0328,-0.0271,-0.0185,-0.018,-0.0161,-0.0141,-0.0036,-0.0038,-0.0041,-0.008,-0.0087,-0.0093,0,0,0,0,0,0,-0.025,-0.0264,-0.0208,-0.0259,-0.0259,-0.0332,-0.0371,-0.0356,-0.0357,-0.0309,-0.0277,-0.0258,-0.0196,-0.0166,-0.0161,-0.0124,-0.0103,-0.0102,-0.014,-0.0145,-0.0151,-0.0103,-0.0122,0,0,0,0,0,-0.0248,-0.0289,-0.0273,-0.0304,-0.0289,-0.0298,-0.0326,-0.0313,-0.0312,-0.0311,-0.0289,-0.0243,-0.021,-0.0168,-0.0147,-0.0108,-0.0055,-0.0088,-0.0093,-0.0097,-0.005,0.0012,0.0018,-0.005,-0.0049,-0.0049,0,0,-0.0281,-0.0285,-0.0309,-0.0316,-0.0313,-0.0308,-0.0311,-0.0312,-0.0298,-0.0272,-0.0262,-0.0247,-0.0205,-0.0191,-0.0159,-0.0146,-0.0062,-0.01,-0.0104,-0.0053,0.001,0.0017,0.0024,-0.0051,-0.0051,-0.0051,0,0,-0.0332,-0.0336,-0.0345,-0.0348,-0.0305,-0.0315,-0.0283,-0.0298,-0.0291,-0.0264,-0.0253,-0.0225,-0.0184,-0.0185,-0.0162,-0.0169,-0.0093,-0.0163,-0.0138,-0.0081,-0.0074,-0.0066,-0.003,-0.0019,-0.0164,-0.0164,-0.0164,0,-0.0312,-0.0341,-0.0363,-0.0345,-0.034,-0.0291,-0.0259,-0.0271,-0.0269,-0.0242,-0.024,-0.0204,-0.018,-0.0141,-0.0172,-0.0173,-0.0131,-0.0118,-0.0084,-0.0075,-0.0066,-0.0031,-0.0018,-0.0166,-0.0166,-0.0166,-0.0165,0,-0.0356,-0.0356,-0.0367,-0.0313,-0.0324,-0.0307,-0.027,-0.0259,-0.0218,-0.0212,-0.016,-0.0173,-0.0142,-0.0159,-0.0159,-0.0107,-0.0097,-0.0099,-0.006,-0.0062,-0.0026,-0.0011,-0.017,-0.0169,-0.0168,-0.0167,0,0,-0.0253,-0.0367,-0.0326,-0.0322,-0.0291,-0.0292,-0.0256,-0.0211,-0.0153,-0.0157,-0.0105,-0.0108,-0.0098,-0.0075,-0.0092,-0.0056,-0.0006,-0.005,-0.0046,0.0001,0.0121,0.0209,0.0233,0.0004,0.0007,0.001,0.0108,0,-0.02,-0.0228,-0.0273,-0.0251,-0.026,-0.0235,-0.0216,-0.0168,-0.0132,-0.0095,-0.0062,-0.0025,-0.007,-0.0049,-0.0025,0.0001,0.0039,-0.0031,0.0106,0.0111,0.0203,0.0256,0.0157,0.0246,0.0123,0.0125,0.0127,0,-0.0128,-0.0185,-0.0173,-0.0238,-0.0215,-0.0186,-0.0114,-0.0096,-0.0029,0.0004,0.0048,0.0066,0.0105,0.0071,0.0145,0.0107,0.0126,0.0141,0.0144,0.0273,0.023,0.0235,0.0278,0.0152,0.015,0.0148,0.0146,0,-0.004,-0.0078,-0.0081,-0.0096,-0.0149,-0.0103,-0.0101,-0.0039,0.0003,0.0078,0.0137,0.0172,0.0227,0.025,0.0276,0.022,0.0384,0.0301,0.0399,0.0402,0.0377,0.0376,0.0388,0.0388,0.0388,0.0387,0.0387,0,-0.0004,0.0005,-0.0038,-0.0049,-0.001,-0.0048,0.0037,0.0049,0.011,0.0187,0.0199,0.0282,0.0287,0.0366,0.0345,0.0453,0.0444,0.0454,0.0462,0.0352,0.0348,0.0317,0.0308,0.0391,0.039,0.039,0.0389,0,0.0051,0.0015,0.0036,0.0025,0.002,0.0072,0.0081,0.0129,0.0191,0.0294,0.0327,0.0405,0.0525,0.0544,0.0612,0.0583,0.0639,0.0677,0.055,0.0545,0.0582,0.0568,0.0772,0.0777,0.0781,0.0784,0.0787,0,0.0045,0.0059,0.0134,0.0142,0.0135,0.0164,0.0181,0.0191,0.0238,0.0376,0.0439,0.0592,0.0702,0.0848,0.0836,0.087,0.0823,0.08,0.0682,0.0649,0.0635,0.0615,0.0597,0.0587,0.0587,0.0588,0.0589,0,0.005,0.016,0.0148,0.0197,0.0234,0.0256,0.0269,0.0303,0.036,0.0456,0.0601,0.0704,0.0876,0.0904,0.0988,0.0958,0.0778,0.0821,0.0852,0.053,0.049,0.0471,0.0455,0.0595,0.0594,0.0594,0.0594,0.0593,0.0104,0.0142,0.0203,0.0233,0.0293,0.0356,0.0361,0.0386,0.0472,0.0599,0.0676,0.0817,0.0809,0.0923,0.094,0.0941,0.0936,0.0819,0.0809,0.08,0.0787,0.076,0.091,0.0911,0.0912,0.0913,0.0914,0,0.0163,0.0171,0.019,0.0264,0.0358,0.04,0.0433,0.0428,0.0524,0.0654,0.0771,0.0707,0.0795,0.085,0.0865,0.0866,0.0767,0.0834,0.0662,0.0657,0.0652,0.0623,0.0707,0.0707,0.0707,0.0707,0,0,0.0162,0.0195,0.0197,0.0325,0.0404,0.0519,0.0554,0.0539,0.0588,0.0626,0.0712,0.0788,0.0823,0.0743,0.0723,0.0757,0.0706,0.0735,0.0889,0.0682,0.0677,0.0624,0.0575,0,0,0,0,0]},{"header":{"parameterUnit":"m.s-1","parameterCategory":2,"la1":30.2991,"la2":30.254,"lo1":-89.0895,"lo2":-89.0444,"dy":0.0017,"dx":0.0017,"nx":28,"ny":28,"refTime":"2024-07-26T21:00:00:Z","depth":"2","parameterNumber":3,"parameterNumberName":"V-component_of_CURRENTS"},"data":[0,0,0,0,0,0,0,0,0,0,0,0,0,0,0,0,0,0,0,0,0,0,0,0,0,0,0,0,0,0,0,0,0,0,0,0,0,0,0,0,0,0,0,0,0,0,0,0,0,0,0,0,0,0,0,0,0,0,0.0009,0.0011,0,0.0182,0.0184,0.0186,0.0204,0.0203,0.0201,0.02,0.0105,0.0104,0.0103,0,0,0,0,0,0,0,0,0,0,0,0,0,-0.0013,-0.0015,0.0008,0.0011,0.0013,0.0182,0.0184,0.0186,0.0205,0.0203,0.0201,0.0199,0.0106,0.0104,0.0103,0,0,0,0,0,0,0,0,0,0,0,0,0,0.0058,-0.0016,0.0008,0.0045,0.005,0.0182,0.0184,0.0187,0.0205,0.0203,0.02,0.0198,0.0106,0.0105,0.0103,0.0137,0,0,0.0098,0.0097,0,0,0,0,0,0,0,0,0.0054,0.0058,0.0037,0.0043,0.0049,0.0172,0.0143,0.0158,0.0205,0.0143,0.02,0.0197,0.0106,0.0105,0.0142,0.0132,0.0128,0.0098,0.0096,0.0096,0.0095,0,0,0,0,0,0,0,0.0048,0.0053,0.0074,0.004,0.0047,0.0155,0.0159,0.0148,0.0127,0.0148,0.0151,0.0176,0.0107,0.0144,0.0139,0.0127,0.0098,0.0096,0.0095,0.0094,0.004,0.0039,0,0,0,0,0,0,0.002,0.0046,0.0069,0.008,0.005,0.0156,0.0161,0.0132,0.0134,0.0135,0.0178,0.0176,0.0148,0.0141,0.0135,0.0104,0.0096,0.0094,0.0093,0.004,0.0039,0.0039,0,0,0,0,0,0,0.0018,0.0018,0.0062,0.0074,0.0087,0.0156,0.0126,0.0137,0.0144,0.016,0.0154,0.017,0.0146,0.0137,0.0103,0.0102,0.0093,0.0092,0.004,0.004,0.0039,0.0085,0,0,0,0,0,0,0.0015,0.0015,-0.0007,0.0069,0.0085,0.0123,0.0129,0.0142,0.0167,0.0165,0.0151,0.0143,0.0143,0.0106,0.0101,0.0099,0.0091,0.0041,0.004,0.0039,0.0084,0.0086,0.0088,0,0,0,0,0,0.0013,0.0021,-0.0011,-0.0006,0.0047,0.0124,0.0141,0.0185,0.0168,0.0179,0.016,0.0142,0.0097,0.0105,0.0099,0.0097,0.0041,0.004,0.0039,0.0083,0.0086,0.0088,0,0,0,0,0,0,0.0006,0.0025,-0.0007,-0.0,0.0037,0.0127,0.0158,0.017,0.0174,0.0144,0.0143,0.0135,0.01,0.0089,0.0097,0.0076,0.0063,0.0061,0.0099,0.0101,0.0102,0.0107,0.0089,0,0,0,0,0,-0.0014,-0.0009,0.0015,0.0023,0.0025,0.0073,0.0109,0.0121,0.0142,0.0143,0.0145,0.0122,0.0104,0.009,0.0074,0.0069,0.0048,0.0059,0.0061,0.0063,0.0061,0.0025,0.0024,0.0036,0.0036,0.0036,0,0,0.0001,0.0004,0.0012,0.0023,0.0046,0.0071,0.0087,0.012,0.0138,0.0125,0.0139,0.0121,0.0098,0.0094,0.0078,0.0079,0.0052,0.0062,0.0064,0.0061,0.0024,0.0023,0.0022,0.0035,0.0035,0.0035,0,0,0.0033,0.0001,0.0004,0.0032,0.0047,0.0071,0.0063,0.0113,0.0118,0.0128,0.0117,0.0103,0.009,0.0096,0.0087,0.0085,0.0055,0.0066,0.0092,0.0057,0.0056,0.0055,0.0048,0.0045,0.0078,0.0078,0.0078,0,0.0029,0.0024,0.0029,0.004,0.0064,0.0055,0.0065,0.0089,0.013,0.0136,0.0117,0.0119,0.0097,0.0103,0.0104,0.0092,0.0067,0.0092,0.0061,0.0059,0.0057,0.005,0.0047,0.008,0.008,0.008,0.0079,0,0.0064,0.006,0.0073,0.0057,0.0083,0.0101,0.0109,0.0121,0.0109,0.0138,0.0131,0.0126,0.0125,0.0122,0.011,0.0096,0.0084,0.0062,0.0061,0.0059,0.0051,0.0047,0.0083,0.0082,0.0082,0.0081,0,0,0.0031,0.0078,0.0075,0.0078,0.0084,0.0113,0.0118,0.0135,0.0146,0.0159,0.0182,0.0167,0.016,0.0148,0.0139,0.0125,0.0099,0.0088,0.0085,0.0091,0.0032,0.0,-0.0007,0.0063,0.0062,0.0061,0.004,0,0.003,0.0066,0.0082,0.0113,0.0124,0.0129,0.0151,0.0167,0.017,0.0197,0.0183,0.0182,0.0169,0.0156,0.0141,0.0102,0.0086,0.0108,0.0023,0.0021,0.0001,-0.0014,-0.0024,-0.0047,0.0036,0.0035,0.0034,0,0.002,0.0058,0.0078,0.0134,0.0132,0.0144,0.0161,0.0182,0.0207,0.0208,0.021,0.02,0.0189,0.0159,0.0109,0.0117,0.0069,0.0047,0.0045,-0.0007,-0.0019,-0.0039,-0.0058,0.0027,0.0028,0.0028,0.0029,0,-0.0011,0.0043,0.0057,0.0081,0.0138,0.0136,0.0149,0.0176,0.0199,0.02,0.0213,0.0199,0.018,0.0126,0.0073,0.0075,0.0013,0.0008,-0.0053,-0.0054,-0.009,-0.0093,-0.0046,-0.0046,-0.0046,-0.0046,-0.0046,0,-0.0019,0.0006,0.0045,0.0068,0.0094,0.012,0.0136,0.0157,0.0185,0.0227,0.0202,0.0233,0.016,0.0128,0.0074,-0.0001,0.0003,-0.0054,-0.0071,-0.0072,-0.0074,-0.0037,-0.0036,-0.0047,-0.0047,-0.0047,-0.0047,0,-0.0029,-0.0014,0.0013,0.006,0.0077,0.0085,0.0136,0.017,0.0177,0.0225,0.022,0.0236,0.0192,0.013,0.0049,-0.0005,-0.0071,-0.0104,-0.0087,-0.0103,-0.0106,-0.0102,-0.0163,-0.0164,-0.0166,-0.0167,-0.0168,0,-0.0028,-0.0016,0.0009,0.0027,0.0046,0.0077,0.0116,0.0147,0.0195,0.0252,0.0287,0.0254,0.0285,0.016,0.0023,-0.0089,-0.0092,-0.0183,-0.0187,-0.0112,-0.0123,-0.0117,-0.0111,-0.0201,-0.0202,-0.0203,-0.0203,0,-0.0007,-0.0027,0.0011,0.0049,0.0066,0.0129,0.0185,0.0225,0.0278,0.0339,0.0429,0.0454,0.0317,0.0193,-0.001,-0.0078,-0.0167,-0.0205,-0.015,-0.0175,-0.0152,-0.016,-0.0153,-0.0211,-0.021,-0.021,-0.0209,-0.0209,0.0004,0.002,0.0042,0.0092,0.0117,0.0194,0.0259,0.0347,0.0443,0.0563,0.0561,0.0581,0.0332,0.0087,-0.0062,-0.0222,-0.0206,-0.0266,-0.0262,-0.0257,-0.0263,-0.0244,-0.032,-0.032,-0.0319,-0.0319,-0.0319,0,0.0042,0.0074,0.0111,0.0157,0.0208,0.0218,0.0333,0.0433,0.0578,0.0637,0.0732,0.0494,0.0335,0.0096,-0.0158,-0.0309,-0.0292,-0.0341,-0.0305,-0.0298,-0.0291,-0.0297,-0.0364,-0.0364,-0.0364,-0.0364,0,0,0.0071,0.0117,0.0145,0.0236,0.0277,0.0376,0.0451,0.0608,0.0682,0.0752,0.0718,0.067,0.0327,0.0107,-0.0111,-0.0223,-0.0202,-0.0229,-0.0184,-0.0108,-0.0098,-0.0249,-0.0251,0,0,0,0,0]}],[{"header":{"parameterUnit":"m.s-1","parameterCategory":2,"la1":30.2991,"la2":30.254,"lo1":-89.0895,"lo2":-89.0444,"dy":0.0017,"dx":0.0017,"nx":28,"ny":28,"refTime":"2024-07-26T21:00:00:Z","depth":"4","parameterNumber":2,"parameterNumberName":"U-component_of_CURRENTS"},"data":[0,0,0,0,0,0,0,0,0,0,0,0,0,0,0,0,0,0,0,0,0,0,0,0,0,0,0,0,0,0,0,0,0,0,0,0,0,0,0,0,0,0,0,0,0,0,0,0,0,0,0,0,0,0,0,0,0,0,-0.0148,-0.0149,0,-0.0119,-0.0119,-0.0118,-0.0104,-0.0104,-0.0105,-0.0105,-0.0198,-0.02,-0.0202,0,0,0,0,0,0,0,0,0,0,0,0,0,-0.0107,-0.0108,-0.0148,-0.0149,-0.0149,-0.012,-0.0119,-0.0118,-0.0104,-0.0104,-0.0105,-0.0105,-0.0197,-0.0199,-0.0202,0,0,0,0,0,0,0,0,0,0,0,0,0,-0.0101,-0.0108,-0.0148,-0.0142,-0.0142,-0.012,-0.0119,-0.0117,-0.0104,-0.0104,-0.0105,-0.0106,-0.0196,-0.0199,-0.0202,-0.0206,0,0,-0.0211,-0.0213,0,0,0,0,0,0,0,0,-0.0102,-0.0102,-0.0143,-0.0142,-0.0142,-0.0121,-0.0138,-0.0155,-0.0103,-0.0112,-0.0105,-0.0106,-0.0186,-0.019,-0.0174,-0.021,-0.0214,-0.0212,-0.0213,-0.0215,-0.0215,0,0,0,0,0,0,0,-0.0102,-0.0103,-0.0132,-0.0143,-0.0143,-0.0112,-0.0112,-0.014,-0.0144,-0.0112,-0.0112,-0.0117,-0.0186,-0.017,-0.0176,-0.0216,-0.0211,-0.0214,-0.0216,-0.0217,-0.0327,-0.0329,0,0,0,0,0,0,-0.012,-0.0104,-0.0133,-0.0131,-0.0129,-0.0113,-0.0113,-0.0122,-0.0141,-0.0145,-0.0116,-0.0116,-0.0165,-0.0173,-0.018,-0.0262,-0.0215,-0.0217,-0.0219,-0.0326,-0.0328,-0.0329,0,0,0,0,0,0,-0.012,-0.0123,-0.0134,-0.0121,-0.0121,-0.0114,-0.0124,-0.0122,-0.0114,-0.0144,-0.0149,-0.0113,-0.0166,-0.0175,-0.0227,-0.0263,-0.0219,-0.0222,-0.0325,-0.0327,-0.0328,-0.0379,0,0,0,0,0,0,-0.0119,-0.0123,-0.0129,-0.0122,-0.0122,-0.0126,-0.0124,-0.0121,-0.0118,-0.0118,-0.0143,-0.0151,-0.0167,-0.0222,-0.023,-0.0266,-0.0224,-0.0324,-0.0326,-0.0328,-0.0376,-0.0382,-0.0387,0,0,0,0,0,-0.0117,-0.012,-0.0129,-0.0133,-0.0133,-0.0127,-0.0123,-0.0117,-0.0117,-0.0112,-0.0145,-0.0151,-0.0241,-0.0226,-0.0234,-0.0273,-0.0323,-0.0325,-0.0328,-0.0373,-0.0381,-0.0387,0,0,0,0,0,0,-0.0108,-0.0119,-0.0129,-0.0138,-0.0139,-0.0127,-0.0119,-0.0119,-0.0133,-0.0143,-0.0167,-0.0178,-0.0236,-0.0243,-0.0226,-0.0309,-0.0282,-0.0286,-0.0314,-0.0321,-0.0327,-0.0307,-0.0226,0,0,0,0,0,-0.0111,-0.0112,-0.0125,-0.013,-0.0132,-0.0127,-0.0123,-0.0125,-0.014,-0.0143,-0.0171,-0.0206,-0.0249,-0.0276,-0.0305,-0.0352,-0.0312,-0.038,-0.0386,-0.0391,-0.038,-0.0375,-0.0378,-0.0337,-0.0337,-0.0337,0,0,-0.0106,-0.0115,-0.0115,-0.0127,-0.0124,-0.0128,-0.0124,-0.0125,-0.0137,-0.0157,-0.0189,-0.0228,-0.0264,-0.032,-0.0346,-0.0335,-0.0373,-0.0394,-0.0399,-0.0384,-0.0377,-0.0381,-0.0385,-0.0339,-0.0339,-0.0338,0,0,-0.0094,-0.011,-0.0106,-0.0111,-0.0122,-0.0126,-0.0131,-0.0138,-0.0149,-0.0194,-0.0215,-0.0272,-0.033,-0.0363,-0.0388,-0.044,-0.0402,-0.0457,-0.0479,-0.0475,-0.0478,-0.048,-0.0393,-0.0387,-0.0464,-0.0464,-0.0465,0,-0.0097,-0.0096,-0.0103,-0.0106,-0.0115,-0.0129,-0.0135,-0.0145,-0.0174,-0.019,-0.0217,-0.0306,-0.035,-0.0407,-0.0441,-0.0455,-0.0415,-0.0453,-0.0481,-0.0483,-0.0484,-0.0395,-0.0387,-0.0467,-0.0467,-0.0467,-0.0466,0,-0.0077,-0.0087,-0.0085,-0.0101,-0.011,-0.0117,-0.0145,-0.0164,-0.0199,-0.0217,-0.0286,-0.0349,-0.0402,-0.0437,-0.0468,-0.0508,-0.0461,-0.0486,-0.046,-0.0491,-0.0394,-0.0386,-0.0471,-0.047,-0.0469,-0.0469,0,0,-0.0084,-0.0073,-0.0081,-0.0083,-0.0113,-0.0117,-0.015,-0.0176,-0.019,-0.0255,-0.0286,-0.0392,-0.0425,-0.0454,-0.05,-0.0516,-0.0502,-0.0516,-0.0515,-0.0421,-0.0428,-0.037,-0.0354,-0.054,-0.054,-0.054,-0.034,0,-0.0078,-0.007,-0.0078,-0.0088,-0.0091,-0.0121,-0.0146,-0.0177,-0.0216,-0.025,-0.0324,-0.0384,-0.043,-0.0484,-0.0505,-0.0511,-0.0489,-0.0549,-0.0418,-0.0411,-0.0353,-0.0348,-0.054,-0.0333,-0.0331,-0.033,-0.0329,0,-0.0075,-0.0069,-0.0068,-0.008,-0.0086,-0.0107,-0.0146,-0.0172,-0.0219,-0.0257,-0.032,-0.0366,-0.0421,-0.0467,-0.0446,-0.0483,-0.0455,-0.0444,-0.0437,-0.0361,-0.0341,-0.0307,-0.0313,-0.0314,-0.0315,-0.0316,-0.0317,0,-0.0073,-0.0075,-0.007,-0.0075,-0.0089,-0.0113,-0.0142,-0.0183,-0.02,-0.0273,-0.0293,-0.0347,-0.0384,-0.0382,-0.0373,-0.0416,-0.0307,-0.0357,-0.0249,-0.024,-0.0328,-0.0328,-0.0315,-0.0316,-0.0316,-0.0317,-0.0317,0,-0.0076,-0.0077,-0.0071,-0.0071,-0.0081,-0.0114,-0.014,-0.0174,-0.022,-0.0212,-0.0307,-0.0297,-0.0375,-0.0331,-0.0325,-0.0233,-0.0256,-0.0226,-0.0198,-0.0347,-0.0352,-0.0318,-0.0321,-0.0309,-0.0311,-0.0312,-0.0314,0,-0.0085,-0.0071,-0.0063,-0.0073,-0.0079,-0.01,-0.0138,-0.0143,-0.0201,-0.0195,-0.0226,-0.0251,-0.0196,-0.0201,-0.0162,-0.015,-0.009,-0.0046,-0.0125,-0.0108,-0.0025,-0.0033,0.0097,0.0101,0.0104,0.0106,0.0108,0,-0.0087,-0.0078,-0.0063,-0.0051,-0.0062,-0.0089,-0.0093,-0.0145,-0.0138,-0.0129,-0.0107,-0.0082,-0.0084,0.0047,0.0021,0.0086,0.0064,0.0118,-0.004,-0.0002,0.0012,-0.0001,-0.0013,0.0113,0.0113,0.0114,0.0115,0,-0.0095,-0.0084,-0.0071,-0.0041,-0.0038,-0.0023,-0.0036,-0.0033,-0.0051,-0.0073,-0.0001,0.0017,0.0105,0.0115,0.0165,0.0197,0.0075,0.0147,0.0139,-0.0009,0.0018,0.0026,0.0011,0.0125,0.0123,0.0122,0.0122,0,-0.0106,-0.0092,-0.006,-0.0035,-0.0004,0.003,0.0014,0.0041,0.0037,0.0042,0.0106,0.0133,0.0147,0.0186,0.0248,0.0263,0.0233,0.02,0.0188,0.0177,0.0098,0.0137,0.0327,0,0,0,0,0,-0.0115,-0.0086,-0.0054,-0.001,0.0032,0.0048,0.0066,0.0054,0.0063,0.0125,0.0098,0.0178,0.0232,0.0252,0.0281,0.0283,0.0231,0.0317,0.0185,0.018,0.0169,0.006,0,0,0,0,0,0,-0.0115,-0.0089,-0.0055,0.0015,0.0052,0.0096,0.0108,0.0113,0.0133,0.0142,0.0167,0.0188,0.0232,0.0217,0.0283,0.0291,0.0211,0.0339,0.034,0.0187,0.0176,0.0167,0.0051,0,0,0,0,0]},{"header":{"parameterUnit":"m.s-1","parameterCategory":2,"la1":30.2991,"la2":30.254,"lo1":-89.0895,"lo2":-89.0444,"dy":0.0017,"dx":0.0017,"nx":28,"ny":28,"refTime":"2024-07-26T21:00:00:Z","depth":"4","parameterNumber":3,"parameterNumberName":"V-component_of_CURRENTS"},"data":[0,0,0,0,0,0,0,0,0,0,0,0,0,0,0,0,0,0,0,0,0,0,0,0,0,0,0,0,0,0,0,0,0,0,0,0,0,0,0,0,0,0,0,0,0,0,0,0,0,0,0,0,0,0,0,0,0,0,-0.0256,-0.0257,0,-0.03,-0.03,-0.03,-0.0336,-0.0337,-0.0337,-0.0338,-0.0367,-0.0368,-0.0368,0,0,0,0,0,0,0,0,0,0,0,0,0,-0.022,-0.022,-0.0256,-0.0257,-0.0258,-0.0299,-0.03,-0.03,-0.0336,-0.0337,-0.0337,-0.0338,-0.0367,-0.0368,-0.0368,0,0,0,0,0,0,0,0,0,0,0,0,0,-0.0245,-0.022,-0.0256,-0.0282,-0.0285,-0.0299,-0.03,-0.03,-0.0336,-0.0337,-0.0337,-0.0338,-0.0367,-0.0368,-0.0368,-0.0353,0,0,-0.0369,-0.0369,0,0,0,0,0,0,0,0,-0.0243,-0.0246,-0.0278,-0.028,-0.0284,-0.0315,-0.0298,-0.0318,-0.0336,-0.0314,-0.0338,-0.0339,-0.0349,-0.0351,-0.0355,-0.0355,-0.0356,-0.0369,-0.037,-0.037,-0.037,0,0,0,0,0,0,0,-0.0242,-0.0244,-0.0271,-0.0278,-0.0282,-0.0297,-0.0301,-0.0302,-0.0325,-0.0316,-0.0319,-0.0327,-0.0351,-0.0354,-0.0356,-0.0357,-0.0369,-0.037,-0.037,-0.037,-0.0406,-0.0407,0,0,0,0,0,0,-0.0239,-0.0242,-0.027,-0.0273,-0.0267,-0.0297,-0.0302,-0.0302,-0.0325,-0.033,-0.0326,-0.0329,-0.0353,-0.0355,-0.0357,-0.0393,-0.037,-0.037,-0.037,-0.0405,-0.0406,-0.0407,0,0,0,0,0,0,-0.0237,-0.024,-0.0268,-0.0261,-0.0266,-0.0297,-0.0298,-0.0303,-0.0327,-0.0333,-0.0338,-0.0348,-0.0354,-0.0356,-0.0384,-0.0393,-0.037,-0.0371,-0.0404,-0.0406,-0.0407,-0.0432,0,0,0,0,0,0,-0.0236,-0.0239,-0.0244,-0.026,-0.0266,-0.0286,-0.0297,-0.0303,-0.033,-0.0334,-0.0353,-0.0355,-0.0355,-0.0383,-0.0384,-0.0393,-0.0371,-0.0404,-0.0405,-0.0406,-0.043,-0.0434,-0.0437,0,0,0,0,0,-0.0234,-0.0243,-0.0244,-0.0248,-0.027,-0.0287,-0.0291,-0.0315,-0.0331,-0.034,-0.0363,-0.0356,-0.0392,-0.0384,-0.0385,-0.0394,-0.0403,-0.0405,-0.0406,-0.0429,-0.0433,-0.0437,0,0,0,0,0,0,-0.0232,-0.0247,-0.0249,-0.0262,-0.0275,-0.0294,-0.0309,-0.0324,-0.0349,-0.0359,-0.0367,-0.0371,-0.04,-0.0394,-0.0385,-0.0409,-0.0395,-0.0397,-0.0412,-0.0416,-0.0419,-0.0417,-0.0371,0,0,0,0,0,-0.0231,-0.0242,-0.0254,-0.0265,-0.0272,-0.0292,-0.0305,-0.032,-0.0342,-0.0355,-0.0376,-0.0392,-0.0402,-0.0409,-0.042,-0.043,-0.0415,-0.0435,-0.0439,-0.0442,-0.0441,-0.0426,-0.0428,-0.0412,-0.0412,-0.0412,0,0,-0.0235,-0.0245,-0.0252,-0.0266,-0.0279,-0.029,-0.0302,-0.0327,-0.0344,-0.0352,-0.0395,-0.041,-0.0411,-0.043,-0.044,-0.0427,-0.044,-0.0444,-0.0446,-0.0444,-0.0428,-0.0429,-0.0431,-0.0413,-0.0413,-0.0413,0,0,-0.0238,-0.0254,-0.0256,-0.0272,-0.0292,-0.0304,-0.0314,-0.0344,-0.0365,-0.0396,-0.0412,-0.0442,-0.0456,-0.0466,-0.0467,-0.0494,-0.0464,-0.049,-0.0497,-0.0483,-0.0484,-0.0484,-0.0472,-0.0471,-0.0484,-0.0484,-0.0484,0,-0.0239,-0.0248,-0.0262,-0.027,-0.0291,-0.0311,-0.0324,-0.0342,-0.0383,-0.0404,-0.0414,-0.0464,-0.0473,-0.0491,-0.05,-0.0502,-0.0481,-0.0481,-0.0486,-0.0486,-0.0486,-0.0474,-0.0472,-0.0485,-0.0485,-0.0485,-0.0485,0,-0.0241,-0.0255,-0.0264,-0.0279,-0.0299,-0.032,-0.0343,-0.0373,-0.0404,-0.0425,-0.0471,-0.0492,-0.0519,-0.0524,-0.0517,-0.0525,-0.0507,-0.0497,-0.0473,-0.0489,-0.0475,-0.0474,-0.0487,-0.0487,-0.0486,-0.0486,0,0,-0.023,-0.0256,-0.0264,-0.0275,-0.0312,-0.0327,-0.0359,-0.039,-0.0419,-0.0459,-0.0497,-0.0525,-0.0545,-0.0548,-0.0552,-0.0539,-0.0529,-0.0511,-0.051,-0.0495,-0.0487,-0.0471,-0.0467,-0.0507,-0.0507,-0.0507,-0.0478,0,-0.0229,-0.0242,-0.0264,-0.0294,-0.0304,-0.0344,-0.0375,-0.041,-0.0443,-0.0486,-0.0513,-0.0546,-0.0548,-0.0562,-0.0554,-0.0534,-0.0524,-0.0538,-0.0478,-0.0477,-0.0456,-0.0465,-0.0506,-0.0477,-0.0477,-0.0476,-0.0476,0,-0.0225,-0.0237,-0.0257,-0.0304,-0.0315,-0.0346,-0.0406,-0.0432,-0.0485,-0.0511,-0.0547,-0.0563,-0.0574,-0.0569,-0.0542,-0.0542,-0.0519,-0.0501,-0.0499,-0.0472,-0.0457,-0.0457,-0.0472,-0.0473,-0.0473,-0.0473,-0.0473,0,-0.0207,-0.0241,-0.0259,-0.0276,-0.0324,-0.036,-0.0397,-0.0452,-0.0476,-0.0526,-0.0542,-0.0567,-0.0568,-0.0549,-0.0521,-0.0519,-0.048,-0.0476,-0.0446,-0.0444,-0.0455,-0.0455,-0.0457,-0.0457,-0.0458,-0.0458,-0.0458,0,-0.0204,-0.0223,-0.0259,-0.0273,-0.0317,-0.0359,-0.0412,-0.0451,-0.0502,-0.0513,-0.0554,-0.0548,-0.0554,-0.0535,-0.0518,-0.0474,-0.0478,-0.0448,-0.0435,-0.0468,-0.0469,-0.0454,-0.0454,-0.0457,-0.0457,-0.0457,-0.0457,0,-0.0188,-0.0207,-0.0227,-0.0281,-0.0308,-0.0343,-0.0418,-0.0444,-0.0492,-0.0504,-0.0511,-0.0521,-0.0483,-0.0497,-0.0458,-0.0456,-0.0429,-0.0415,-0.0454,-0.0444,-0.0405,-0.0407,-0.0377,-0.0376,-0.0375,-0.0375,-0.0374,0,-0.018,-0.0187,-0.0227,-0.0248,-0.0283,-0.034,-0.0375,-0.0438,-0.045,-0.0463,-0.0453,-0.0439,-0.0436,-0.038,-0.0396,-0.039,-0.0387,-0.0389,-0.04,-0.0406,-0.0396,-0.0399,-0.0402,-0.0373,-0.0373,-0.0373,-0.0373,0,-0.017,-0.0182,-0.0199,-0.0225,-0.0266,-0.0301,-0.0352,-0.0357,-0.0393,-0.0427,-0.0377,-0.0372,-0.0339,-0.0331,-0.0343,-0.0334,-0.0399,-0.0381,-0.0383,-0.0393,-0.0401,-0.0393,-0.0396,-0.037,-0.0371,-0.0371,-0.0371,0,-0.0168,-0.0173,-0.0184,-0.0212,-0.0243,-0.0255,-0.0289,-0.0296,-0.0314,-0.0331,-0.0294,-0.0291,-0.0294,-0.0299,-0.0296,-0.0308,-0.0306,-0.0313,-0.0318,-0.0321,-0.0323,-0.0326,-0.0258,0,0,0,0,0,-0.0164,-0.0164,-0.0175,-0.0194,-0.021,-0.0229,-0.0264,-0.0288,-0.031,-0.0261,-0.0286,-0.0251,-0.0246,-0.0248,-0.025,-0.0291,-0.0321,-0.0295,-0.0334,-0.0357,-0.0359,-0.0371,0,0,0,0,0,0,-0.0167,-0.0169,-0.0162,-0.016,-0.0168,-0.0185,-0.0204,-0.0219,-0.0203,-0.0221,-0.0213,-0.0241,-0.0239,-0.023,-0.024,-0.0249,-0.0273,-0.0309,-0.0309,-0.0355,-0.0358,-0.036,-0.0373,0,0,0,0,0]}]]